Regional Weather Roundup
Issued by NWS Wilmington, NC

Home | Current Version | Previous Version | Text Only | Print | Product List | Glossary On
Versions: 1 2 3 4 5 6 7 8 9 10 11 12 13 14 15 16 17 18 19 20 21 22 23 24 25 26 27 28 29 30 31 32 33 34 35 36 37
000
ASUS42 KILM 231210
RWRILM
RWRILM
REGIONAL HOURLY WEATHER ROUNDUP
NATIONAL WEATHER SERVICE WILMINGTON NC
800 AM EDT THU OCT 23 2014

NOTE: "FAIR" INDICATES FEW OR NO CLOUDS BELOW 12,000 FEET WITH NO
SIGNIFICANT WEATHER AND/OR OBSTRUCTIONS TO VISIBILITY.

...............WFO WILMINGTON COUNTY WARNING AREA...............

......COASTAL NC AND SC COUNTIES......

CITY           SKY/WX    TMP DP  RH WIND       PRES   REMARKS
WILMINGTON     CLEAR     47  42  83 NW6       30.01R
SOUTHPORT      CLEAR     47  41  80 NW8       30.02R
N MYRTLE BEACH CLEAR     47  42  83 NW3       30.04R
MYRTLE BEACH   CLEAR     46  41  81 NW8       30.06

......INLAND NC AND SC COUNTIES.......

CITY           SKY/WX    TMP DP  RH WIND       PRES   REMARKS
LUMBERTON      CLEAR     43  41  93 W5        30.04R
ELIZABETHTOWN  CLEAR     47  41  81 CALM      30.03R
WHITEVILLE     CLEAR     46  42  86 CALM      30.03S
FLORENCE       CLEAR     46  40  79 NW6       30.06S
DARLINGTON     CLEAR     45  37  76 NW6       30.07S

....................REST OF NORTH CAROLINA......................

.........EASTERN NC.........

CITY           SKY/WX    TMP DP  RH WIND       PRES   REMARKS
CAPE HATTERAS  CLEAR     54  46  74 NW13G26   29.91R
JACKSONVILLE   CLEAR     46  39  76 W3        30.01R
MOREHEAD CITY  CLEAR     52  45  77 NW16      29.97S
KENANSVILLE    CLEAR     46  42  84 NW3       30.02S
NEW BERN       CLEAR     50  43  77 W9        30.00R
ELIZABETH CITY CLOUDY    52  43  71 W14       29.91S

.........CENTRAL NC.........

CITY           SKY/WX    TMP DP  RH WIND       PRES   REMARKS
RALEIGH DURHAM CLEAR     43  38  82 CALM      30.02S
ROCKY MOUNT    CLEAR     48  41  76 W7        29.99S
ROANOKE RAPIDS NOT AVBL
FAYETTEVILLE   CLEAR     51  40  65 NW12      30.02S
HOFFMAN        CLEAR     43  41  93 NW5       30.06R

.........WESTERN NC.........

CITY           SKY/WX    TMP DP  RH WIND       PRES   REMARKS
CHARLOTTE      CLEAR     41  37  86 NW6       30.09S
GREENSBORO     CLEAR     42  37  82 W6        30.03S
HICKORY        NOT AVBL
BOONE          NOT AVBL
ASHEVILLE      NOT AVBL

.....................REST OF SOUTH CAROLINA.....................

.........EASTERN SC.........

CITY           SKY/WX    TMP DP  RH WIND       PRES   REMARKS
CHARLESTON     CLEAR     46  42  86 NW3       30.08S
BEAUFORT MCAS  CLEAR     49  44  83 N5        30.09S
HILTON HEAD    NOT AVBL

.........CENTRAL SC.........

CITY           SKY/WX    TMP DP  RH WIND       PRES   REMARKS
COLUMBIA       CLEAR     41  37  86 SW3       30.09R
ORANGEBURG     CLEAR     42  38  85 NW3       30.08F
SUMTER SHAW    CLEAR     46  41  82 NW8       30.06S

.........WESTERN SC.........

CITY           SKY/WX    TMP DP  RH WIND       PRES   REMARKS
GREENVILLE     NOT AVBL
ROCK HILL      CLEAR     37  35  92 N5        30.08F WCI  33
ANDERSON       PTCLDY    37  35  92 CALM      30.10S
CLEMSON        NOT AVBL
GREENWOOD      CLEAR     37  35  92 CALM      30.11F


...................COASTAL AND OFFSHORE REPORTS..................

................LOCAL PIERS AND NC RESERVE................


STATION/POSITION TIME  SKY/WX   TEMP    WIND        PRES    VSBY
                                AIR SEA DIR/SP/G
                 (UTC)          (F)     (DEG/KT/KT) (MB)    (MI)
JOHNY MRCER PIER 1200            50 73  320/  9/ 15 1015.1F
NC RESRV MASNBRO NOT AVBL
OCEAN CREST PIER 1200            49 70  300/ 10/ 14 1015.2R
SPRINGMAID  PIER 1200            48 70  310/  8/ 10 1017.5R


................COASTAL AND OFFSHORE BUOYS................


STATION/POSITION TIME  SKY/WX   TEMP    WIND        PRES    VSBY
                                AIR SEA DIR/SP/G
                 (UTC)          (F)     (DEG/KT/KT) (MB)    (MI)
DIMNDSHOAL 41025 1200            58     300/ 23/ 29 1012.2R
WVE H/P(F/S)=  6/ 6 WND WVE H/P(F/S)=  5/ 6 SWL H/P/D(F/S/D)=  2/ 70/10

CAPE LOOKOUT     1100            55     310/ 15/ 18 1014.3R
ONSLOW BAY 41036 1200            60 75  340/ 21/ 25 1014.2R
WVE H/P(F/S)=  4/ 4 WND WVE H/P(F/S)=  3/ 4

5 WRITEBCH 41038 1200            52 72  340/ 17/ 21   N/A
MASONBORO  41110 1200               72                N/A
WVE H/P(F/S)=  2/ 3 WND WVE H/P(F/S)=  2/ 3

WILM HARBR 41108 1200               72                N/A
WVE H/P(F/S)=  3/ 4 WND WVE H/P(F/S)=  3/ 4

27WRITEBCH 41037 1100            57 75  350/ 17/ 21 1014.7F
FRYING PAN 41013 1200            60 74  340/ 14/ 17 1016.5R
WVE H/P(F/S)=  4/ 5 WND WVE H/P(F/S)=  3/ 5 SWL H/P/D(F/S/D)=  2/110/10

SUNST NRSH 41024 1100            51     340/ 16/ 17 1015.9R
CAPRS NRSH 41029 NOT AVBL
EDISTO     41004 1200            63 78  340/ 12/ 16 1016.8R
WVE H/P(F/S)=  4/ 6 WND WVE H/P(F/S)=  3/ 5 SWL H/P/D(F/S/D)=  2/ 6



..........OFFSHORE BUOYS BEYOND 100 NM OFFSHORE...........
.....IN A TRIANGLE---HAT TO BERMUDA TO BAHAMAS TO HAT.....


STATION/POSITION TIME  SKY/WX   TEMP    WIND        PRES    VSBY
                                AIR SEA DIR/SP/G
                 (UTC)          (F)     (DEG/KT/KT) (MB)    (MI)
150E HAT   41001 NOT AVBL
W BERMUDA  41048 NOT AVBL
ATLANTIC S 41049 1119            81 81  190/ 12/ 14 1014.6R
WVE H/P(F/S)=  3/ 8 WND WVE H/P(F/S)=  2/ 3 SWL H/P/D(F/S/D)=  3/ 50/ 8

E BAHAMAS  41046 1147            82 83  170/ 10/ 12 1013.7R
WVE H/P(F/S)=  3/10 WND WVE H/P(F/S)=  2/ 4 SWL H/P/D(F/S/D)=  3/ 60/10

NE BAHAMAS 41047 1101            77 81  110/  4/  6 1012.6S
WVE H/P(F/S)=  2/10 WND WVE H/P(F/S)=  2/ 4 SWL H/P/D(F/S/D)=  2/110/10

120E CANVRL41010 1200            73 81   40/ 12/ 16 1014.8S
WVE H/P(F/S)=  4/ 7 WND WVE H/P(F/S)=  2/ 5 SWL H/P/D(F/S/D)=  3/340/ 7


END



USA.gov is the U.S. government's official web portal to all federal, state and local government web resources and services.